COSMOS 2569 (703K)

Last updated on Mon Sep 07 2026 00:02:49 GMT+0000 (Coordinated Universal Time)

1 57517U 23114A 26249.43509422 .00000039 00000+0 00000+0 0 9998 2 57517 65.3530 69.8828 0008585 290.3009 69.6597 2.13102456 23998
UTC large
Height (km)
Speed (km/s)
/
Latitude / Longitude
Inclination (degrees)
Orbital Period (minutes)
Azimuth
Elevation
Range (km)
Doppler Factor

Next 0 passes for location: London (51.5072 / 0.1276)

No passes found over London.
COSMOS 2569 (703K)